{"data":{"norad_id":51740,"intl_designator":"2022-016AC","name":"STARLINK-3500","alt_names":[],"object_type":"PAYLOAD","status":"ACTIVE","operator":null,"country":"US","launch_date":"2022-02-21","launch_site_code":"AFETR","launch_vehicle":null,"mission":null,"orbit_class":"UNKNOWN","rcs_meters":null,"size_class":null,"mass_kg":null,"dimensions":null,"purposes":["comms"],"wikipedia_slug":null,"has_3d_model":false,"image_url":null,"decayed_at":null,"tle_current":{"epoch":"2026-05-24T19:20:49.485120Z","epoch_age_seconds":87981,"freshness":"FRESH","line1":"1 51740U 22016AC  26144.80612830 -.00000448  00000+0 -10061-4 0  9992","line2":"2 51740  53.2171 337.4199 0001099  90.6113 269.5005 15.08837777235058","mean_motion":15.08837777,"eccentricity":0.0001099,"inclination_deg":53.2171,"raan_deg":337.4199,"arg_perigee_deg":90.6113,"mean_anomaly_deg":269.5005,"bstar":-1.0061e-5,"rev_number":23505,"period_min":95.437695287769,"perigee_km":538.98990799262,"apogee_km":540.51045959562,"semimajor_km":6917.8871837941,"source":"CELESTRAK","updated_at":"2026-05-25T13:38:16.925011Z"}}}